Погода в Бурукане

Погода в Бурукане : погода сейчас, прогноз погоды и архив. Всё, что Вы хотите узнать о погоде в Бурукане!

Поиск расширенной информации на нашем сайте:

Другие новости

Новости СМИ2

Главная страница сайта

Новости сайта

02.10.2013

Напоминаем, что на нашем новом сайте вы можете получить высокодетализированные прогнозы погоды по пунктам России, СНГ и мира (включающие важные для авиации метеовеличины, такие как направление и скорость ветра, видимость, явления погоды, количество и форма облачности, нижняя и верхняя граница облачности), а также ознакомиться с разнообразными материалами по авиационной метеорологии и подборкой полезных ссылок на эту тему.

Сайт Метеоцентр.Азия посвящён разработке технологий оптимизации авиаметеорологического обслуживания, включая проектирование и перспективное создание нескольких автоматизированных авиаметеорологических систем:
- система выпуска высокодетальных прогностических карт явлений погоды для нижнего воздушного пространства по России и ближнему зарубежью;
- система верификации прогнозов TAF (выпускаемых синоптиками официальных АМСГ РФ и ближнего зарубежья) и AUTOTAF (выпускаемых сайтом Метеоцентр.Азия) - выявление ошибок, онлайн-сопоставление с фактической погодой METAR, автоматическое внесение коррективов в прогнозы при резком отклонении фактической погоды от прогноза, подсчёт оправдываемости прогнозов по элементам и в целом;
- система обработки, анализа и отображения авиаметеорологической информации для применения провайдерами метеорологической информации.

Рекомендуем: шарж минск

Погода в Бурукане - сегодня

Время (UTC), дата Ветер
(°,м/с) 
Видим.   Явления Облачность Т
(°С)
Тd
(°С)
f(%) Тe
(°С)
Pmin
(гПа)
dP
(гПа)
Po
(мм)
O2
(г/м3)
Тmin Tmax R s Состояние
почвы
21 16.02.17 330 (СЗ) 4000 м  слаб. ливневой снег  10/10 600 м кучево-дожд. 
[Cb cap]
-14.4 -16.3 85 -17  1013  0.3  745  318  -14.4    30  равномерный
сухой снег
100% 
00 17.02.17 340 (С) 4000 м  слаб. ливневой снег  10/10 600 м кучево-дожд. 
[Cb cap]
-14.8 -18.4 74 -18  1014  0.9  745  319  -14.9         
06 17.02.17 350 (С) 4{11}  н/о    н/о 
-13.7 -18.5 67 -18  1013.4  -0.1  745  317           
09 17.02.17 340 (С) н/о    н/о 
-15.2 -20 67 -17  1015.2  1.6  746  320    -13.1       
12 17.02.17 330 (СЗ) н/о    н/о 
-16.1 -19 78 -18  1016.4  1.1  747  321           
15 17.02.17 340 (С) н/о    н/о 
-16.6 -20.1 74 -19  1016.3  0.1  747  322           
21 17.02.17 010 (С) 20000 м    ясно 
-20.4 -23.6 76 -23  1016.7  -0.3  747  327  -20.5      30  равномерный
сухой снег
100% 
00 18.02.17 030 (СВ) н/о    н/о 
-18.2 -23.6 63 -18  1017.5  748  324  -21.9         
03 18.02.17 020 (С) 20000 м    6/0 верхняя 
[Cs]
-15.1 -24.2 46 -19  1016.2  -1  747  320           
06 18.02.17 020 (С) 20000 м    3/0 верхняя 
[Ci fib]
-14 -23.7 44 -18  1015.2  -1  746  319           
09 18.02.17 тихо ()   20000 м    1/0 верхняя 
[Ci fib]
-22.1 -26 71 -22  1016.9  747  329    -13.8       
12 18.02.17 тихо ()   20000 м    ясно 
-29.5 -32.2 77 -30  1017.9  0.3  747  339           
15 18.02.17 тихо ()   20000 м    ясно 
-33.7 -36.9 73 -34  1017.8  -0.5  747  345           
18 18.02.17 тихо ()   н/о    н/о 
-36.4 -39.9 70 -36  1017.7  -0.3  747  349           
21 18.02.17 310 (СЗ) 20000 м    ясно 
-37 -40.6 69 -38  1017.7  747  350  -37.3      30  равномерный
сухой снег
100% 
00 19.02.17 010 (С) 20000 м    ясно 
-29 -32 75 -33  1016.8  -0.2  746  338           
06 19.02.17 190 (Ю) 20000 м    ясно 
-13.5 -25.9 34 -16  1013  -1.2  745  317           
09 19.02.17 тихо ()   20000 м    ясно 
-22.7 -27.5 65 -23  1014.5  0.7  745  329    -13       
12 19.02.17 тихо ()   20000 м    ясно 
-31.4 -34.7 73 -31  1015.4  0.2  745  341           
15 19.02.17 тихо ()   н/о    н/о 
-35.5 -39.1 70 -36  1015.8  745  347           
18 19.02.17 тихо ()   20000 м    ясно 
-37.7 -41.4 68 -38  1015.9  0.1  745  350           
21 19.02.17 320 (СЗ) 20000 м    ясно 
-38.3 -42.3 66 -39  1016.3  0.4  746  351  -38.6      30  равномерный
сухой снег
100% 
00 20.02.17 330 (СЗ) 20000 м    ясно 
-27.1 -30.9 70 -28  1015.8  0.5  746  336  -38.9         
03 20.02.17 220 (ЮЗ) 20000 м    ясно 
-13.8 -26.5 33 -14  1013.5  -1.1  745  318           
06 20.02.17 120 (ЮВ) 20000 м    4/0 верхняя 
[Ci fib]
-9 -25.8 24 -9  1012.5  -0.6  745  312           
Время (UTC), дата Ветер
(°,м/с) 
Видим.   Явления Облачность Т
(°С)
Тd
(°С)
f(%) Тe
(°С)
Pmin
(гПа)
dP
(гПа)
Po
(мм)
O2
(г/м3)
Тmin Tmax R s Состояние
почвы

Для получения пояснительной информации подведите курсор к названию столбца.

ПОГОДА в Бурукане - архив

Всё, что Вы хотите узнать о погоде в Бурукане - удобно и подробно!

Выберите нужную дату (начиная с 1 января 2015* года) и нажмите кнопку "Найти".
Будут отображены архивные сводки погоды по пункту Бурукан, начиная с указанной даты.


Отображать данные в формате CSV (для использования в таблицах Excel)


Внимание! Наш архив погоды предназначен исключительно для личного некоммерческого использования в познавательных целях. Если Вам необходимы официальные справки о состоянии погоды (для производственных, юридических, коммерческих и т.п. целей), обращайтесь в органы Росгидромета.

*Примечание: данная дата относится к архиву по метеостанциям СССР (Россия, СНГ, Балтия).
Архив по метеостанциям Зарубежной Европы и Азии (кроме Китая) хранится 10 дней, по другим регионам земного шара (Китай, Африка, Америка, Австралия, Океания) - 1 день.

Бурукан - район местоположения метеостанции


Название, широта, долгота, высота метеостанции:
Бурукан 53.1°ш. 136°д. 153 м над ур. моря [Российская Федерация]

Дополнительная информация

В oтличие oт бoльшинства пoгoдных сайтoв мы публикуем пoдрoбную метеoинфoрмацию в детальнoм прoфессиoнальнoм фoрмате.

Характеристики температуры и влажнoсти вoздуха измеряются на высoте 2 м в тени вдали oт зданий и деревьев.
Скoрoсть ветра измеряется на высoте 10 м (на урoвне рoста челoвека скoрoсть ветра ниже в 1.5-2 раза). Если метеoстанция нахoдится в гoрoде или в лесу, тo скoрoсть ветра занижена на 2-4 м/с пo сравнению с oткрытым местoм. Скoрoсть ветра над акватoриями крупных рек и oзёр, а также на вершинах хoлмoв на 2-5 м/с выше, чем в oбычных услoвиях.
Атмoсфернoе давление в разных тoчках местнoсти мoжет значительнo oтличаться oт давления на метеoстанции, в зависимoсти oт услoвий рельефа (при пoдъёме на 10 м давление пoнижается примернo на 1 мм рт.ст.).